< < Back
Terminal Aerodrome Forecast


Current Version              Previous Versions:   1  2  3  4  5  6  7  8  9  

Terminal Aerodrome Forecast

847
FTUS42 KFFC 241600 AAB
TAFATL
TAF AMD
KATL 241600Z 2416/2518 12007KT P6SM SCT060
     FM250000 16006KT P6SM BKN060
     FM250900 20006KT P6SM BKN050
     FM251200 23010KT P6SM SCT025 BKN050
     FM251500 23010G20KT P6SM BKN025=



Latest METAR

990
SAUS70 KWBC 250000 RRD
MTRATL
METAR KATL 242352Z 18005KT 10SM FEW075 BKN250 24/09 A2991 RMK AO2 SLP122
T02390089 10267 20239 56013


USA.gov is the U.S. government's official web portal to all federal, state and local government web resources and services.